Voltar ao catálogo

SITRO-AIS-54

AtivoNavegaçãoSSO
NORAD 59777·PAYLOAD·🇷🇺 Russia
Este nome de satélite ainda não foi confirmado por fontes oficiais.

Lançado May 16, 2024 de Plesetsk Cosmodrome

Loading…

Próximas Passagens (próximas 24 horas)

TLE

AtualizadoSource: Space-Track

Época: Sep 14, 2026, 08:22 UTC

1 59777U 24092E   26257.34902484  .00016821  00000-0  42460-3 0  9995
2 59777  97.6693  34.3245 0006508 183.5853 176.5347 15.39893295129458

Acompanhe SITRO-AIS-54 em tempo real com AllMySat

Download on the App Store